Location: Newark
(35.0589°N, 135.9944°E)
Time: 06:14:34
(UTC+00:00)

Envisat - Visible Passes

Search period start: 22 September 2019 00:00
Search period end: 02 October 2019 00:00
Orbit: 764 x 766 km, 98.1° (Epoch: 21 September)

Date Brightness Start Highest point End Pass type
(mag) Time Alt. Az. Time Alt. Az. Time Alt. Az.
22 Sep 4.6 09:46:47 10° SSW 09:51:28 38° W 09:56:11 10° NNW visible
23 Sep 3.1 09:09:35 10° SSE 09:14:39 89° E 09:19:46 10° NNW visible
24 Sep 5.6 10:13:22 10° SW 10:17:07 21° W 10:20:54 10° NW visible
25 Sep 4.1 09:35:17 10° S 09:40:10 49° W 09:45:07 10° NNW visible
26 Sep 6.3 10:41:41 10° WSW 10:42:52 11° W 10:44:03 10° WNW visible
27 Sep 5.2 10:01:33 10° SSW 10:05:48 27° W 10:10:03 10° NW visible
28 Sep 3.5 09:23:53 10° S 09:28:54 64° W 09:33:57 10° NNW visible
29 Sep 6.0 10:28:47 10° SW 10:31:30 14° W 10:34:13 10° WNW visible
30 Sep 4.8 09:49:54 10° SSW 09:54:29 34° W 09:59:06 10° NNW visible
01 Oct 3.1 09:12:34 10° S 09:17:39 83° WSW 09:22:44 10° NNW visible
